We Are Flying But It's Windy!
We recommend you give our operations team a call to make sure that aircraft are flying today.

We recommend that you phone ahead before traveling
John Monaghan - Flight Operations: 0862486210
EIDW 221330Z 26014KT 9999 SCT028 BKN200 17/10 Q1013 NOSIG